Station Historical Data
Daily Summary for August 5, 2017 Units:  English    Metric   Both
« Previous Day
Next Day »
Daily Weekly Monthly Yearly Custom
  High: Low: Average:
Temperature: 80.8 °F 71.7 °F 75.8 °F
Dew Point: 64.9 °F 53.2 °F 58.6 °F
Humidity: 71 % 47 % 55 %
Wind Speed: 14.0 mph 0.0 mph 2 mph
Wind Gust: 18.0 mph - -
Wind:- - ESE
Pressure: 29.88 in 29.82 in -
Precipitation: 0.00 in    
Historical Graphs
 
 
Tabular Data for August 5, 2017
Time Temperature Dew Point Pressure Wind Wind Speed Wind Gust Humidity Rainfall Rate (Hourly) solar
00:03 75.6 °F 55.7 °F 29.84 in East 11.0 mph 11.0 mph 50 % 0.00 in 0.00 W/m2
00:08 75.6 °F 55.7 °F 29.84 in Calm   9.0 mph 50 % 0.00 in 0.00 W/m2
00:13 75.6 °F 55.1 °F 29.84 in Calm   8.0 mph 49 % 0.00 in 0.00 W/m2
00:18 75.5 °F 55.0 °F 29.84 in East 5.0 mph 8.0 mph 49 % 0.00 in 0.00 W/m2
00:23 75.5 °F 55.0 °F 29.84 in East 7.0 mph 12.0 mph 49 % 0.00 in 0.00 W/m2
00:28 75.5 °F 55.0 °F 29.84 in Calm   13.0 mph 49 % 0.00 in 0.00 W/m2
00:34 75.5 °F 55.0 °F 29.84 in East 1.0 mph 8.0 mph 49 % 0.00 in 0.00 W/m2
00:39 75.5 °F 55.0 °F 29.84 in ESE 4.0 mph 9.0 mph 49 % 0.00 in 0.00 W/m2
00:44 75.5 °F 54.5 °F 29.84 in ESE 5.0 mph 11.0 mph 48 % 0.00 in 0.00 W/m2
00:49 75.5 °F 54.5 °F 29.84 in Calm   7.0 mph 48 % 0.00 in 0.00 W/m2
00:54 75.5 °F 54.5 °F 29.84 in Calm   9.0 mph 48 % 0.00 in 0.00 W/m2
00:59 75.4 °F 54.4 °F 29.84 in ESE 2.0 mph 11.0 mph 48 % 0.00 in 0.00 W/m2
01:04 75.4 °F 54.4 °F 29.84 in Calm   8.0 mph 48 % 0.00 in 0.00 W/m2
01:09 75.4 °F 54.4 °F 29.84 in Calm   8.0 mph 48 % 0.00 in 0.00 W/m2
01:14 75.3 °F 54.3 °F 29.84 in Calm   9.0 mph 48 % 0.00 in 0.00 W/m2
01:19 75.3 °F 54.3 °F 29.84 in ESE 6.0 mph 9.0 mph 48 % 0.00 in 0.00 W/m2
01:24 75.3 °F 54.3 °F 29.84 in Calm   11.0 mph 48 % 0.00 in 0.00 W/m2
01:29 75.2 °F 54.2 °F 29.84 in Calm   9.0 mph 48 % 0.00 in 0.00 W/m2
01:34 75.2 °F 54.2 °F 29.84 in Calm   9.0 mph 48 % 0.00 in 0.00 W/m2
01:39 75.2 °F 54.2 °F 29.84 in ESE 6.0 mph 12.0 mph 48 % 0.00 in 0.00 W/m2
01:44 75.1 °F 54.1 °F 29.84 in ESE 2.0 mph 8.0 mph 48 % 0.00 in 0.00 W/m2
01:49 75.1 °F 53.5 °F 29.84 in Calm   12.0 mph 47 % 0.00 in 0.00 W/m2
01:54 75.1 °F 54.1 °F 29.84 in ESE 7.0 mph 9.0 mph 48 % 0.00 in 0.00 W/m2
01:59 75.1 °F 54.1 °F 29.83 in Calm   9.0 mph 48 % 0.00 in 0.00 W/m2
02:04 75.1 °F 54.1 °F 29.83 in ESE 5.0 mph 7.0 mph 48 % 0.00 in 0.00 W/m2
02:09 75.1 °F 54.1 °F 29.83 in ESE 7.0 mph 8.0 mph 48 % 0.00 in 0.00 W/m2
02:14 75.0 °F 54.0 °F 29.83 in Calm   7.0 mph 48 % 0.00 in 0.00 W/m2
02:19 75.0 °F 54.0 °F 29.83 in ESE 6.0 mph 7.0 mph 48 % 0.00 in 0.00 W/m2
02:24 75.0 °F 54.0 °F 29.83 in Calm   8.0 mph 48 % 0.00 in 0.00 W/m2
02:29 75.0 °F 54.0 °F 29.83 in ESE 5.0 mph 8.0 mph 48 % 0.00 in 0.00 W/m2
02:34 75.0 °F 54.0 °F 29.83 in Calm   9.0 mph 48 % 0.00 in 0.00 W/m2
02:39 75.0 °F 53.4 °F 29.83 in Calm   9.0 mph 47 % 0.00 in 0.00 W/m2
02:44 75.0 °F 53.4 °F 29.83 in Calm   7.0 mph 47 % 0.00 in 0.00 W/m2
02:49 75.1 °F 53.5 °F 29.83 in ESE 4.0 mph 7.0 mph 47 % 0.00 in 0.00 W/m2
02:54 75.1 °F 53.5 °F 29.83 in Calm   7.0 mph 47 % 0.00 in 0.00 W/m2
02:59 75.1 °F 53.5 °F 29.83 in ESE 6.0 mph 7.0 mph 47 % 0.00 in 0.00 W/m2
03:04 75.1 °F 53.5 °F 29.83 in ESE 5.0 mph 9.0 mph 47 % 0.00 in 0.00 W/m2
03:09 75.2 °F 53.6 °F 29.83 in Calm   9.0 mph 47 % 0.00 in 0.00 W/m2
03:14 75.1 °F 53.5 °F 29.83 in Calm   8.0 mph 47 % 0.00 in 0.00 W/m2
03:19 75.2 °F 53.6 °F 29.83 in Calm   7.0 mph 47 % 0.00 in 0.00 W/m2
03:24 75.2 °F 53.6 °F 29.84 in Calm   13.0 mph 47 % 0.00 in 0.00 W/m2
03:29 75.1 °F 53.5 °F 29.84 in ESE 8.0 mph 11.0 mph 47 % 0.00 in 0.00 W/m2
03:34 75.1 °F 53.5 °F 29.84 in Calm   8.0 mph 47 % 0.00 in 0.00 W/m2
03:39 75.1 °F 53.5 °F 29.84 in Calm   9.0 mph 47 % 0.00 in 0.00 W/m2
03:44 75.1 °F 53.5 °F 29.84 in Calm   13.0 mph 47 % 0.00 in 0.00 W/m2
03:49 75.1 °F 53.5 °F 29.84 in East 2.0 mph 11.0 mph 47 % 0.00 in 0.00 W/m2
03:54 75.0 °F 53.4 °F 29.84 in East 4.0 mph 18.0 mph 47 % 0.00 in 0.00 W/m2
03:59 75.0 °F 53.4 °F 29.84 in ESE 4.0 mph 14.0 mph 47 % 0.00 in 0.00 W/m2
04:04 74.9 °F 53.3 °F 29.84 in Calm   12.0 mph 47 % 0.00 in 0.00 W/m2
04:09 74.9 °F 53.3 °F 29.84 in East 1.0 mph 13.0 mph 47 % 0.00 in 0.00 W/m2
04:14 74.9 °F 53.3 °F 29.84 in ESE 5.0 mph 13.0 mph 47 % 0.00 in 0.00 W/m2
04:19 74.9 °F 53.3 °F 29.84 in ESE 7.0 mph 9.0 mph 47 % 0.00 in 0.00 W/m2
04:24 74.9 °F 53.3 °F 29.84 in Calm   9.0 mph 47 % 0.00 in 0.00 W/m2
04:29 74.9 °F 53.3 °F 29.84 in Calm   12.0 mph 47 % 0.00 in 0.00 W/m2
04:34 74.9 °F 53.3 °F 29.84 in ESE 4.0 mph 12.0 mph 47 % 0.00 in 0.00 W/m2
04:39 74.9 °F 53.3 °F 29.84 in Calm   9.0 mph 47 % 0.00 in 0.00 W/m2
04:44 74.9 °F 53.3 °F 29.84 in Calm   7.0 mph 47 % 0.00 in 0.00 W/m2
04:49 74.9 °F 53.3 °F 29.83 in Calm   6.0 mph 47 % 0.00 in 0.00 W/m2
04:54 74.9 °F 53.3 °F 29.83 in Calm   1.0 mph 47 % 0.00 in 0.00 W/m2
04:59 74.8 °F 53.2 °F 29.83 in Calm     47 % 0.00 in 0.00 W/m2
05:05 74.8 °F 53.8 °F 29.83 in Calm     48 % 0.00 in 0.00 W/m2
05:10 74.8 °F 53.8 °F 29.84 in ESE 6.0 mph 12.0 mph 48 % 0.00 in 0.00 W/m2
05:15 74.8 °F 53.8 °F 29.84 in Calm   9.0 mph 48 % 0.00 in 0.00 W/m2
05:20 74.8 °F 53.8 °F 29.84 in ESE 11.0 mph 12.0 mph 48 % 0.00 in 0.00 W/m2
05:25 74.7 °F 53.7 °F 29.84 in East 14.0 mph 15.0 mph 48 % 0.00 in 0.00 W/m2
05:30 74.6 °F 53.6 °F 29.84 in Calm   16.0 mph 48 % 0.00 in 0.00 W/m2
05:35 74.4 °F 53.5 °F 29.84 in Calm   13.0 mph 48 % 0.00 in 0.00 W/m2
05:40 74.3 °F 53.4 °F 29.84 in ESE 2.0 mph 9.0 mph 48 % 0.00 in 0.00 W/m2
05:45 74.3 °F 53.4 °F 29.84 in Calm   7.0 mph 48 % 0.00 in 0.00 W/m2
05:50 74.2 °F 53.3 °F 29.85 in Calm   9.0 mph 48 % 0.00 in 0.00 W/m2
05:55 74.1 °F 53.7 °F 29.85 in SE 7.0 mph 11.0 mph 49 % 0.00 in 0.00 W/m2
06:00 74.0 °F 53.7 °F 29.85 in SE 1.0 mph 11.0 mph 49 % 0.00 in 0.00 W/m2
06:01 74.0 °F 53.7 °F 29.85 in SE 10.0 mph 12.0 mph 49 % 0.00 in 0.00 W/m2
06:06 73.9 °F 53.6 °F 29.85 in SE 6.0 mph 10.0 mph 49 % 0.00 in 0.00 W/m2
06:07 73.9 °F 53.6 °F 29.85 in Calm   10.0 mph 49 % 0.00 in 0.00 W/m2
06:12 73.8 °F 54.0 °F 29.85 in SE 1.0 mph 9.0 mph 50 % 0.00 in 0.00 W/m2
06:17 73.7 °F 53.9 °F 29.85 in Calm   2.0 mph 50 % 0.00 in 0.00 W/m2
06:22 73.7 °F 53.9 °F 29.85 in Calm   5.0 mph 50 % 0.00 in 5.00 W/m2
06:27 73.6 °F 54.4 °F 29.85 in SE 2.0 mph 4.0 mph 51 % 0.00 in 7.00 W/m2
06:32 73.5 °F 54.3 °F 29.85 in Calm   7.0 mph 51 % 0.00 in 9.00 W/m2
06:37 73.3 °F 54.6 °F 29.85 in SE 4.0 mph 6.0 mph 52 % 0.00 in 14.00 W/m2
06:42 73.1 °F 54.5 °F 29.85 in Calm   8.0 mph 52 % 0.00 in 18.00 W/m2
06:44 73.1 °F 54.5 °F 29.85 in ESE 6.0 mph 9.0 mph 52 % 0.00 in 18.00 W/m2
06:49 73.0 °F 54.4 °F 29.84 in Calm   8.0 mph 52 % 0.00 in 21.00 W/m2
06:54 72.9 °F 54.3 °F 29.85 in Calm   9.0 mph 52 % 0.00 in 28.00 W/m2
06:59 72.9 °F 54.3 °F 29.84 in Calm   6.0 mph 52 % 0.00 in 33.00 W/m2
07:04 72.9 °F 54.3 °F 29.85 in Calm   5.0 mph 52 % 0.00 in 39.00 W/m2
07:09 73.0 °F 54.9 °F 29.85 in Calm   7.0 mph 53 % 0.00 in 47.00 W/m2
07:14 73.0 °F 54.9 °F 29.85 in East 1.0 mph 13.0 mph 53 % 0.00 in 51.00 W/m2
07:19 73.1 °F 55.0 °F 29.85 in Calm   7.0 mph 53 % 0.00 in 54.00 W/m2
07:24 73.1 °F 55.0 °F 29.85 in Calm   4.0 mph 53 % 0.00 in 60.00 W/m2
07:29 73.2 °F 55.1 °F 29.85 in Calm   8.0 mph 53 % 0.00 in 67.00 W/m2
07:34 73.2 °F 55.1 °F 29.85 in Calm   9.0 mph 53 % 0.00 in 77.00 W/m2
07:39 73.3 °F 55.2 °F 29.86 in SE 9.0 mph 13.0 mph 53 % 0.00 in 91.00 W/m2
07:43 73.3 °F 55.2 °F 29.85 in Calm   13.0 mph 53 % 0.00 in 105.00 W/m2
07:48 73.4 °F 55.2 °F 29.86 in ESE 2.0 mph 9.0 mph 53 % 0.00 in 241.00 W/m2
07:53 73.4 °F 55.8 °F 29.86 in ESE 9.0 mph 12.0 mph 54 % 0.00 in 179.00 W/m2
07:54 73.4 °F 55.8 °F 29.86 in ESE 4.0 mph 13.0 mph 54 % 0.00 in 125.00 W/m2
07:59 73.4 °F 55.8 °F 29.86 in ESE 7.0 mph 13.0 mph 54 % 0.00 in 67.00 W/m2
08:04 73.5 °F 55.3 °F 29.86 in South 7.0 mph 13.0 mph 53 % 0.00 in 63.00 W/m2
08:09 73.5 °F 55.9 °F 29.86 in SE 2.0 mph 11.0 mph 54 % 0.00 in 65.00 W/m2
08:14 73.5 °F 55.9 °F 29.86 in SE 5.0 mph 15.0 mph 54 % 0.00 in 74.00 W/m2
08:19 73.5 °F 56.4 °F 29.86 in SE 9.0 mph 13.0 mph 55 % 0.00 in 91.00 W/m2
08:24 73.4 °F 56.3 °F 29.86 in ESE 6.0 mph 12.0 mph 55 % 0.00 in 120.00 W/m2
08:29 73.4 °F 56.3 °F 29.86 in SE 8.0 mph 9.0 mph 55 % 0.00 in 153.00 W/m2
08:34 73.3 °F 56.2 °F 29.86 in Calm   9.0 mph 55 % 0.00 in 204.00 W/m2
08:39 73.4 °F 56.3 °F 29.87 in SE 5.0 mph 11.0 mph 55 % 0.00 in 232.00 W/m2
08:44 73.4 °F 56.3 °F 29.87 in Calm   8.0 mph 55 % 0.00 in 302.00 W/m2
08:49 73.5 °F 56.4 °F 29.86 in SE 1.0 mph 9.0 mph 55 % 0.00 in 200.00 W/m2
08:54 73.6 °F 56.5 °F 29.86 in SE 4.0 mph 8.0 mph 55 % 0.00 in 127.00 W/m2
08:59 73.8 °F 56.6 °F 29.86 in Calm   7.0 mph 55 % 0.00 in 120.00 W/m2
09:04 74.0 °F 57.3 °F 29.86 in Calm   6.0 mph 56 % 0.00 in 121.00 W/m2
09:09 74.1 °F 57.9 °F 29.86 in Calm   9.0 mph 57 % 0.00 in 105.00 W/m2
09:14 74.3 °F 58.6 °F 29.86 in Calm   6.0 mph 58 % 0.00 in 88.00 W/m2
09:19 74.4 °F 58.2 °F 29.87 in SE 6.0 mph 9.0 mph 57 % 0.00 in 90.00 W/m2
09:24 74.4 °F 58.2 °F 29.86 in Calm   7.0 mph 57 % 0.00 in 93.00 W/m2
09:29 74.5 °F 58.3 °F 29.86 in SE 5.0 mph 9.0 mph 57 % 0.00 in 88.00 W/m2
09:34 74.5 °F 58.3 °F 29.86 in Calm   8.0 mph 57 % 0.00 in 76.00 W/m2
09:39 74.4 °F 57.7 °F 29.87 in SE 5.0 mph 7.0 mph 56 % 0.00 in 67.00 W/m2
09:44 74.4 °F 57.7 °F 29.86 in Calm   9.0 mph 56 % 0.00 in 63.00 W/m2
09:45 74.4 °F 57.7 °F 29.86 in SE 7.0 mph 9.0 mph 56 % 0.00 in 63.00 W/m2
09:50 74.3 °F 57.6 °F 29.86 in ESE 4.0 mph 9.0 mph 56 % 0.00 in 54.00 W/m2
09:55 74.2 °F 57.5 °F 29.87 in Calm   9.0 mph 56 % 0.00 in 56.00 W/m2
10:00 74.1 °F 57.9 °F 29.86 in Calm   13.0 mph 57 % 0.00 in 76.00 W/m2
10:05 74.0 °F 58.3 °F 29.86 in ESE 11.0 mph 14.0 mph 58 % 0.00 in 104.00 W/m2
10:10 73.9 °F 58.2 °F 29.87 in SE 14.0 mph 14.0 mph 58 % 0.00 in 137.00 W/m2
10:15 73.7 °F 58.5 °F 29.86 in ESE 5.0 mph 14.0 mph 59 % 0.00 in 155.00 W/m2
10:20 73.6 °F 57.9 °F 29.87 in SE 4.0 mph 11.0 mph 58 % 0.00 in 172.00 W/m2
10:25 73.5 °F 57.8 °F 29.87 in ESE 4.0 mph 9.0 mph 58 % 0.00 in 188.00 W/m2
10:30 73.5 °F 58.3 °F 29.87 in Calm   13.0 mph 59 % 0.00 in 199.00 W/m2
10:35 73.5 °F 57.8 °F 29.87 in Calm   8.0 mph 58 % 0.00 in 253.00 W/m2
10:40 73.6 °F 57.9 °F 29.87 in ESE 4.0 mph 7.0 mph 58 % 0.00 in 283.00 W/m2
10:45 73.7 °F 58.0 °F 29.87 in SE 4.0 mph 9.0 mph 58 % 0.00 in 290.00 W/m2
10:50 73.9 °F 58.7 °F 29.87 in SE 1.0 mph 9.0 mph 59 % 0.00 in 308.00 W/m2
10:55 74.1 °F 58.9 °F 29.87 in SE 7.0 mph 9.0 mph 59 % 0.00 in 615.00 W/m2
11:00 74.4 °F 58.7 °F 29.88 in Calm   9.0 mph 58 % 0.00 in 309.00 W/m2
11:05 74.8 °F 59.5 °F 29.87 in SE 8.0 mph 9.0 mph 59 % 0.00 in 258.00 W/m2
11:10 75.1 °F 59.3 °F 29.87 in SE 6.0 mph 7.0 mph 58 % 0.00 in 209.00 W/m2
11:15 75.5 °F 58.7 °F 29.87 in Calm   5.0 mph 56 % 0.00 in 192.00 W/m2
11:20 75.9 °F 60.1 °F 29.87 in Calm   1.0 mph 58 % 0.00 in 267.00 W/m2
11:25 76.1 °F 59.8 °F 29.87 in Calm   6.0 mph 57 % 0.00 in 376.00 W/m2
11:30 76.3 °F 60.5 °F 29.87 in SE 6.0 mph 8.0 mph 58 % 0.00 in 309.00 W/m2
11:35 76.5 °F 60.2 °F 29.88 in Calm   5.0 mph 57 % 0.00 in 271.00 W/m2
11:40 76.7 °F 61.8 °F 29.88 in Calm   6.0 mph 60 % 0.00 in 204.00 W/m2
11:45 76.9 °F 61.5 °F 29.87 in Calm   1.0 mph 59 % 0.00 in 185.00 W/m2
11:50 77.0 °F 62.1 °F 29.87 in Calm   1.0 mph 60 % 0.00 in 271.00 W/m2
11:55 77.1 °F 61.2 °F 29.88 in Calm   1.0 mph 58 % 0.00 in 531.00 W/m2
12:00 77.3 °F 62.8 °F 29.88 in Calm   6.0 mph 61 % 0.00 in 1104.00 W/m2
12:05 77.5 °F 63.5 °F 29.88 in SE 1.0 mph 1.0 mph 62 % 0.00 in 388.00 W/m2
12:10 77.8 °F 61.4 °F 29.88 in Calm   5.0 mph 57 % 0.00 in 362.00 W/m2
12:15 78.1 °F 61.6 °F 29.88 in SE 4.0 mph 5.0 mph 57 % 0.00 in 366.00 W/m2
12:20 78.4 °F 61.4 °F 29.87 in Calm   7.0 mph 56 % 0.00 in 376.00 W/m2
12:22 78.4 °F 61.4 °F 29.87 in Calm   4.0 mph 56 % 0.00 in 364.00 W/m2
12:27 78.7 °F 62.2 °F 29.87 in Calm   7.0 mph 57 % 0.00 in 302.00 W/m2
12:32 78.8 °F 63.3 °F 29.88 in Calm     59 % 0.00 in 257.00 W/m2
12:37 78.8 °F 63.8 °F 29.88 in Calm     60 % 0.00 in 227.00 W/m2
12:38 78.8 °F 63.8 °F 29.88 in Calm     60 % 0.00 in 221.00 W/m2
12:43 78.7 °F 62.7 °F 29.87 in Calm   4.0 mph 58 % 0.00 in 188.00 W/m2
12:44 78.7 °F 62.7 °F 29.87 in Calm   4.0 mph 58 % 0.00 in 185.00 W/m2
12:49 78.6 °F 63.1 °F 29.87 in SE 1.0 mph 1.0 mph 59 % 0.00 in 165.00 W/m2
12:54 78.5 °F 62.5 °F 29.87 in Calm   7.0 mph 58 % 0.00 in 176.00 W/m2
12:59 78.5 °F 62.0 °F 29.87 in Calm   8.0 mph 57 % 0.00 in 190.00 W/m2
13:04 78.4 °F 62.4 °F 29.87 in Calm   8.0 mph 58 % 0.00 in 193.00 W/m2
13:09 78.3 °F 62.3 °F 29.87 in ESE 6.0 mph 12.0 mph 58 % 0.00 in 214.00 W/m2
13:14 78.2 °F 61.7 °F 29.87 in ESE 8.0 mph 8.0 mph 57 % 0.00 in 206.00 W/m2
13:19 78.1 °F 61.6 °F 29.87 in Calm   6.0 mph 57 % 0.00 in 199.00 W/m2
13:24 78.1 °F 62.1 °F 29.87 in Calm   7.0 mph 58 % 0.00 in 193.00 W/m2
13:29 78.0 °F 62.0 °F 29.87 in ESE 4.0 mph 9.0 mph 58 % 0.00 in 188.00 W/m2
13:34 77.8 °F 61.9 °F 29.87 in Calm   6.0 mph 58 % 0.00 in 167.00 W/m2
13:39 77.7 °F 61.8 °F 29.87 in Calm   7.0 mph 58 % 0.00 in 165.00 W/m2
13:44 77.6 °F 62.2 °F 29.87 in East 9.0 mph 11.0 mph 59 % 0.00 in 185.00 W/m2
13:49 77.4 °F 62.0 °F 29.87 in East 7.0 mph 9.0 mph 59 % 0.00 in 223.00 W/m2
13:54 77.2 °F 62.2 °F 29.87 in ESE 6.0 mph 13.0 mph 60 % 0.00 in 278.00 W/m2
13:59 77.2 °F 62.2 °F 29.87 in Calm   15.0 mph 60 % 0.00 in 397.00 W/m2
14:04 77.3 °F 62.3 °F 29.87 in ESE 2.0 mph 11.0 mph 60 % 0.00 in 492.00 W/m2
14:09 77.7 °F 62.7 °F 29.87 in Calm   12.0 mph 60 % 0.00 in 1129.00 W/m2
14:14 78.5 °F 62.0 °F 29.87 in East 11.0 mph 13.0 mph 57 % 0.00 in 396.00 W/m2
14:19 79.2 °F 62.2 °F 29.87 in East 6.0 mph 11.0 mph 56 % 0.00 in 411.00 W/m2
14:24 79.8 °F 62.2 °F 29.87 in Calm   8.0 mph 55 % 0.00 in 916.00 W/m2
14:29 80.5 °F 61.8 °F 29.87 in East 7.0 mph 11.0 mph 53 % 0.00 in 496.00 W/m2
14:34 80.8 °F 61.5 °F 29.87 in East 5.0 mph 11.0 mph 52 % 0.00 in 478.00 W/m2
14:39 80.8 °F 61.0 °F 29.87 in Calm   6.0 mph 51 % 0.00 in 260.00 W/m2
14:44 80.8 °F 61.5 °F 29.87 in East 4.0 mph 8.0 mph 52 % 0.00 in 225.00 W/m2
14:50 80.7 °F 62.0 °F 29.86 in Calm   7.0 mph 53 % 0.00 in 227.00 W/m2
14:55 80.6 °F 62.4 °F 29.86 in Calm     54 % 0.00 in 225.00 W/m2
15:00 80.5 °F 62.9 °F 29.86 in Calm     55 % 0.00 in 229.00 W/m2
15:05 80.3 °F 63.2 °F 29.86 in Calm   5.0 mph 56 % 0.00 in 264.00 W/m2
15:10 80.2 °F 62.6 °F 29.86 in Calm   1.0 mph 55 % 0.00 in 265.00 W/m2
15:15 80.0 °F 62.9 °F 29.86 in East 1.0 mph 1.0 mph 56 % 0.00 in 287.00 W/m2
15:20 79.9 °F 62.3 °F 29.86 in Calm   5.0 mph 55 % 0.00 in 332.00 W/m2
15:25 79.9 °F 61.8 °F 29.86 in Calm   11.0 mph 54 % 0.00 in 410.00 W/m2
15:30 79.9 °F 61.8 °F 29.86 in ESE 1.0 mph 7.0 mph 54 % 0.00 in 315.00 W/m2
15:35 79.9 °F 61.8 °F 29.86 in Calm   8.0 mph 54 % 0.00 in 309.00 W/m2
15:38 79.9 °F 61.3 °F 29.86 in Calm   6.0 mph 53 % 0.00 in 355.00 W/m2
15:43 80.0 °F 61.3 °F 29.86 in Calm   1.0 mph 53 % 0.00 in 306.00 W/m2
15:48 80.0 °F 60.8 °F 29.86 in Calm   1.0 mph 52 % 0.00 in 269.00 W/m2
15:53 80.1 °F 61.4 °F 29.86 in Calm   1.0 mph 53 % 0.00 in 251.00 W/m2
15:58 80.1 °F 62.0 °F 29.85 in Calm   6.0 mph 54 % 0.00 in 267.00 W/m2
16:03 80.0 °F 62.4 °F 29.85 in Calm   6.0 mph 55 % 0.00 in 306.00 W/m2
16:08 79.9 °F 62.3 °F 29.85 in Calm   1.0 mph 55 % 0.00 in 397.00 W/m2
16:13 79.8 °F 63.2 °F 29.85 in Calm     57 % 0.00 in 341.00 W/m2
16:18 79.8 °F 63.2 °F 29.85 in Calm     57 % 0.00 in 352.00 W/m2
16:23 79.8 °F 64.2 °F 29.85 in Calm   1.0 mph 59 % 0.00 in 376.00 W/m2
16:28 79.7 °F 62.1 °F 29.85 in Calm     55 % 0.00 in 802.00 W/m2
16:34 79.8 °F 61.7 °F 29.84 in Calm     54 % 0.00 in 744.00 W/m2
16:44 80.1 °F 63.0 °F 29.84 in Calm     56 % 0.00 in 232.00 W/m2
16:49 80.2 °F 63.1 °F 29.84 in Calm     56 % 0.00 in 230.00 W/m2
16:54 80.2 °F 63.6 °F 29.84 in Calm     57 % 0.00 in 218.00 W/m2
16:59 80.2 °F 64.1 °F 29.84 in Calm     58 % 0.00 in 216.00 W/m2
17:04 80.0 °F 63.9 °F 29.84 in Calm     58 % 0.00 in 218.00 W/m2
17:09 80.0 °F 64.4 °F 29.84 in Calm     59 % 0.00 in 253.00 W/m2
17:10 80.0 °F 64.4 °F 29.84 in Calm     59 % 0.00 in 272.00 W/m2
17:15 80.0 °F 63.9 °F 29.83 in Calm     58 % 0.00 in 598.00 W/m2
17:20 80.0 °F 63.4 °F 29.83 in Calm     57 % 0.00 in 642.00 W/m2
17:25 80.0 °F 62.4 °F 29.83 in Calm     55 % 0.00 in 396.00 W/m2
17:30 80.3 °F 61.1 °F 29.83 in Calm     52 % 0.00 in 241.00 W/m2
17:35 80.4 °F 62.2 °F 29.83 in Calm     54 % 0.00 in 229.00 W/m2
17:40 80.5 °F 63.9 °F 29.83 in Calm   1.0 mph 57 % 0.00 in 250.00 W/m2
17:50 80.6 °F 64.5 °F 29.83 in Calm   1.0 mph 58 % 0.00 in 232.00 W/m2
17:55 80.6 °F 64.5 °F 29.83 in Calm     58 % 0.00 in 357.00 W/m2
18:00 80.5 °F 64.9 °F 29.82 in Calm     59 % 0.00 in 399.00 W/m2
18:05 80.5 °F 64.9 °F 29.82 in Calm   1.0 mph 59 % 0.00 in 315.00 W/m2
18:10 80.5 °F 62.3 °F 29.82 in Calm   1.0 mph 54 % 0.00 in 301.00 W/m2
18:15 80.4 °F 63.3 °F 29.83 in Calm   1.0 mph 56 % 0.00 in 290.00 W/m2
18:20 80.4 °F 63.3 °F 29.83 in Calm   1.0 mph 56 % 0.00 in 271.00 W/m2
18:25 80.4 °F 62.2 °F 29.83 in Calm     54 % 0.00 in 257.00 W/m2
18:30 80.4 °F 63.8 °F 29.83 in Calm   1.0 mph 57 % 0.00 in 120.00 W/m2
18:35 80.3 °F 63.7 °F 29.83 in Calm     57 % 0.00 in 76.00 W/m2
18:40 80.2 °F 64.6 °F 29.83 in Calm   4.0 mph 59 % 0.00 in 84.00 W/m2
18:45 80.0 °F 63.9 °F 29.83 in Calm   1.0 mph 58 % 0.00 in 98.00 W/m2
18:50 79.6 °F 64.0 °F 29.83 in Calm     59 % 0.00 in 95.00 W/m2
18:55 79.4 °F 64.3 °F 29.83 in Calm   1.0 mph 60 % 0.00 in 84.00 W/m2
19:00 79.2 °F 63.7 °F 29.83 in Calm     59 % 0.00 in 70.00 W/m2
19:05 79.0 °F 63.9 °F 29.84 in Calm   1.0 mph 60 % 0.00 in 58.00 W/m2
19:10 78.7 °F 64.1 °F 29.84 in Calm   1.0 mph 61 % 0.00 in 49.00 W/m2
19:16 78.4 °F 62.9 °F 29.84 in Calm   1.0 mph 59 % 0.00 in 40.00 W/m2
19:21 78.2 °F 62.7 °F 29.84 in Calm     59 % 0.00 in 35.00 W/m2
19:26 77.9 °F 63.4 °F 29.84 in Calm     61 % 0.00 in 30.00 W/m2
19:31 77.5 °F 62.1 °F 29.84 in Calm   1.0 mph 59 % 0.00 in 26.00 W/m2
19:36 77.2 °F 61.3 °F 29.84 in Calm   1.0 mph 58 % 0.00 in 21.00 W/m2
19:41 76.7 °F 61.8 °F 29.84 in Calm   1.0 mph 60 % 0.00 in 18.00 W/m2
19:46 76.4 °F 61.5 °F 29.84 in Calm     60 % 0.00 in 16.00 W/m2
19:56 75.8 °F 60.5 °F 29.84 in Calm   1.0 mph 59 % 0.00 in 14.00 W/m2
20:01 75.6 °F 59.8 °F 29.84 in Calm   1.0 mph 58 % 0.00 in 11.00 W/m2
20:06 75.2 °F 59.9 °F 29.85 in Calm     59 % 0.00 in 9.00 W/m2
20:11 75.0 °F 59.2 °F 29.85 in Calm   1.0 mph 58 % 0.00 in 7.00 W/m2
20:16 74.7 °F 59.4 °F 29.85 in Calm     59 % 0.00 in 0.00 W/m2
20:21 74.3 °F 58.6 °F 29.85 in Calm     58 % 0.00 in 0.00 W/m2
20:26 74.0 °F 57.8 °F 29.85 in Calm     57 % 0.00 in 0.00 W/m2
20:31 73.7 °F 57.5 °F 29.85 in Calm     57 % 0.00 in 0.00 W/m2
20:36 73.5 °F 57.3 °F 29.85 in Calm     57 % 0.00 in 0.00 W/m2
20:41 73.4 °F 57.3 °F 29.85 in Calm     57 % 0.00 in 0.00 W/m2
20:46 73.3 °F 57.2 °F 29.86 in Calm     57 % 0.00 in 0.00 W/m2
20:51 73.2 °F 56.6 °F 29.86 in Calm     56 % 0.00 in 0.00 W/m2
20:56 73.1 °F 56.5 °F 29.86 in ESE 6.0 mph 6.0 mph 56 % 0.00 in 0.00 W/m2
21:01 73.1 °F 56.5 °F 29.86 in ESE 4.0 mph 5.0 mph 56 % 0.00 in 0.00 W/m2
21:06 73.1 °F 56.5 °F 29.86 in ESE 4.0 mph 5.0 mph 56 % 0.00 in 0.00 W/m2
21:11 73.0 °F 56.9 °F 29.86 in ESE 5.0 mph 6.0 mph 57 % 0.00 in 0.00 W/m2
21:16 73.0 °F 57.4 °F 29.86 in ESE 2.0 mph 4.0 mph 58 % 0.00 in 0.00 W/m2
21:21 72.9 °F 57.8 °F 29.87 in ESE 5.0 mph 5.0 mph 59 % 0.00 in 0.00 W/m2
21:31 72.9 °F 58.7 °F 29.87 in Calm     61 % 0.00 in 0.00 W/m2
21:36 72.9 °F 59.1 °F 29.87 in ESE 2.0 mph 2.0 mph 62 % 0.00 in 0.00 W/m2
21:41 72.9 °F 60.0 °F 29.87 in ESE 5.0 mph 5.0 mph 64 % 0.00 in 0.00 W/m2
21:46 72.9 °F 60.5 °F 29.87 in Calm   1.0 mph 65 % 0.00 in 0.00 W/m2
21:51 72.9 °F 61.3 °F 29.87 in Calm   6.0 mph 67 % 0.00 in 0.00 W/m2
21:56 72.9 °F 61.3 °F 29.86 in Calm   2.0 mph 67 % 0.00 in 0.00 W/m2
22:01 72.9 °F 61.7 °F 29.86 in ESE 2.0 mph 2.0 mph 68 % 0.00 in 0.00 W/m2
22:06 72.8 °F 61.6 °F 29.86 in ESE 6.0 mph 7.0 mph 68 % 0.00 in 0.00 W/m2
22:11 72.8 °F 61.6 °F 29.86 in ESE 4.0 mph 4.0 mph 68 % 0.00 in 0.00 W/m2
22:16 72.8 °F 62.0 °F 29.86 in ESE 4.0 mph 7.0 mph 69 % 0.00 in 0.00 W/m2
22:21 72.7 °F 62.0 °F 29.86 in Calm   6.0 mph 69 % 0.00 in 0.00 W/m2
22:27 72.7 °F 62.0 °F 29.86 in ESE 2.0 mph 7.0 mph 69 % 0.00 in 0.00 W/m2
22:32 72.7 °F 62.0 °F 29.86 in ESE 1.0 mph 5.0 mph 69 % 0.00 in 0.00 W/m2
22:37 72.6 °F 62.3 °F 29.86 in ESE 6.0 mph 7.0 mph 70 % 0.00 in 0.00 W/m2
22:42 72.6 °F 62.3 °F 29.86 in ESE 2.0 mph 6.0 mph 70 % 0.00 in 0.00 W/m2
22:47 72.5 °F 62.2 °F 29.86 in ESE 1.0 mph 7.0 mph 70 % 0.00 in 0.00 W/m2
22:52 72.4 °F 62.1 °F 29.85 in ESE 2.0 mph 6.0 mph 70 % 0.00 in 0.00 W/m2
22:57 72.4 °F 62.1 °F 29.85 in Calm   9.0 mph 70 % 0.00 in 0.00 W/m2
23:02 72.3 °F 62.0 °F 29.85 in ESE 2.0 mph 12.0 mph 70 % 0.00 in 0.00 W/m2
23:07 72.2 °F 61.9 °F 29.85 in ESE 6.0 mph 8.0 mph 70 % 0.00 in 0.00 W/m2
23:12 72.2 °F 62.3 °F 29.85 in ESE 6.0 mph 11.0 mph 71 % 0.00 in 0.00 W/m2
23:17 72.1 °F 62.2 °F 29.85 in Calm   12.0 mph 71 % 0.00 in 0.00 W/m2
23:22 72.1 °F 62.2 °F 29.85 in ESE 6.0 mph 6.0 mph 71 % 0.00 in 0.00 W/m2
23:27 72.0 °F 62.1 °F 29.85 in ESE 5.0 mph 11.0 mph 71 % 0.00 in 0.00 W/m2
23:32 72.0 °F 61.7 °F 29.85 in ESE 4.0 mph 7.0 mph 70 % 0.00 in 0.00 W/m2
23:37 71.9 °F 61.6 °F 29.84 in Calm   6.0 mph 70 % 0.00 in 0.00 W/m2
23:42 71.9 °F 61.2 °F 29.85 in ESE 7.0 mph 9.0 mph 69 % 0.00 in 0.00 W/m2
23:47 71.8 °F 61.1 °F 29.84 in East 12.0 mph 12.0 mph 69 % 0.00 in 0.00 W/m2
23:52 71.8 °F 61.1 °F 29.84 in ESE 6.0 mph 12.0 mph 69 % 0.00 in 0.00 W/m2
23:57 71.7 °F 61.0 °F 29.84 in ESE 11.0 mph 13.0 mph 69 % 0.00 in 0.00 W/m2
Juneau County Weather
Compliments of Weather Underground - 4.75 mb
 WU-history PHP script courtesy of   Juneau County Weather.
powered by Cumulus v1.9.3 (1059)
Ambient Weather VWS v14.00
Top Contact Website Map Copyright © 2007 - 2018 Foresthillweather.com Never base important decisions on this or any weather information obtained from the Internet